Hourly Data Report for March 30, 2018

TORONTO CITY
ONTARIO

43°40'00.000" N
79°24'00.000" W
112.50 m
6158355
71508
XTO

Download Data

Hourly Data (March 2018)
Hourly Data Report for March 30, 2018
TIME
LST
Temp Definition
°C
Dew Point Definition
°C
Rel Hum Definition
%
Precip. Amount Definition
mm

Wind Dir Definition
10's deg

Wind Spd Definition
km/h
Visibility Definition
km
Stn Press Definition
kPa
Hmdx Definition


Wind Chill Definition


Weather Definition


00:00 4.5 2.6 88 0.4 LegendMM LegendMM   99.52     LegendNANA
01:00 4.4 2.3 86 0.0 LegendMM LegendMM   99.58     LegendNANA
02:00 4.4 2.0 84 0.0 LegendMM LegendMM   99.64     LegendNANA
03:00 4.2 1.7 84 0.0 LegendMM LegendMM   99.57     LegendNANA
04:00 4.3 1.5 82 0.0 LegendMM LegendMM   99.65     LegendNANA
05:00 3.7 0.3 79 0.0 LegendMM LegendMM   99.73     LegendNANA
06:00 2.8 0.0 82 0.0 LegendMM LegendMM   99.84     LegendNANA
07:00 2.7 -0.7 79 0.0 LegendMM LegendMM   100.00     LegendNANA
08:00 2.9 -1.4 73 0.0 LegendMM LegendMM   100.08     LegendNANA
09:00 3.5 -2.5 65 0.0 LegendMM LegendMM   100.15     LegendNANA
10:00 4.3 -5.1 50 0.2 LegendMM LegendMM   100.24     LegendNANA
11:00 4.7 -6.0 46 0.0 LegendMM LegendMM   100.28     LegendNANA
12:00 4.2 -10.9 32 0.0 LegendMM LegendMM   100.31     LegendNANA
13:00 5.2 -9.5 34 0.0 LegendMM LegendMM   100.32     LegendNANA
14:00 5.0 -12.8 26 0.0 LegendMM LegendMM   100.37     LegendNANA
15:00 4.7 -10.9 31 0.0 LegendMM LegendMM   100.47     LegendNANA
16:00 4.5 -10.6 32 0.0 LegendMM LegendMM   100.50     LegendNANA
17:00 4.6 -10.9 32 0.0 LegendMM LegendMM   100.54     LegendNANA
18:00 3.9 -11.3 32 0.0 LegendMM LegendMM   100.59     LegendNANA
19:00 3.3 -10.3 36 0.0 LegendMM LegendMM   100.63     LegendNANA
20:00 2.0 -8.7 45 0.0 LegendMM LegendMM   100.74     LegendNANA
21:00 1.4 -8.6 47 0.0 LegendMM LegendMM   100.80     LegendNANA
22:00 1.0 -8.1 51 0.0 LegendMM LegendMM   100.82     LegendNANA
23:00 1.4 -8.3 48 0.0 LegendMM LegendMM   100.86     LegendNANA

Notes on Data Quality.

Legend

  • E = Estimated
  • M = Missing
  • NA = Not Available*
  • [empty] = Indicates an unobserved value
Date modified: